This is the latest recevied weather packets stored in our database for station/object N9GKE-1. If no packets are shown the sender has not sent any weather packets the latest 10 day(s).
| Time | Temp. | Humidity | Pressure | Rain* | Wind** | Luminosity | Snow |
|---|---|---|---|---|---|---|---|
| 1778179150 | 16.11° C | 39% | 1013.8 hPa | 0 mm | - | - | - |
| 1778178695 | 15.56° C | 40% | 1014 hPa | 0 mm | - | - | - |
| 1778178550 | 15.56° C | 41% | 1014.1 hPa | 0 mm | - | - | - |
| 1778178098 | 15.56° C | 37% | 1014.1 hPa | 0 mm | - | - | - |
| 1778177951 | 15.56° C | 40% | 1014.1 hPa | 0 mm | - | - | - |
| 1778177494 | 16.11° C | 38% | 1014.1 hPa | 0 mm | - | - | - |
| 1778177350 | 16.11° C | 38% | 1014.1 hPa | 0 mm | - | - | - |
| 1778176894 | 15.56° C | 39% | 1014.3 hPa | 0 mm | - | - | - |
| 1778176751 | 15.56° C | 40% | 1014.2 hPa | 0 mm | - | - | - |
| 1778176296 | 16.11° C | 40% | 1014.5 hPa | 0 mm | - | - | - |
| 1778176150 | 16.11° C | 39% | 1014.4 hPa | 0 mm | - | - | - |
| 1778175695 | 16.11° C | 40% | 1014.6 hPa | 0 mm | - | - | - |
| 1778175550 | 16.11° C | 42% | 1014.7 hPa | 0 mm | - | - | - |
| 1778175094 | 16.11° C | 39% | 1014.8 hPa | 0 mm | - | - | - |
| 1778174952 | 15.56° C | 44% | 1014.8 hPa | 0 mm | - | - | - |
| 1778174495 | 15.56° C | 42% | 1014.9 hPa | 0 mm | - | - | - |
| 1778174351 | 15° C | 41% | 1014.9 hPa | 0 mm | - | - | - |
| 1778173895 | 15° C | 41% | 1015 hPa | 0 mm | - | - | - |
| 1778173750 | 15° C | 39% | 1015 hPa | 0 mm | - | - | - |
| 1778173295 | 14.44° C | 41% | 1015.1 hPa | 0 mm | - | - | - |
| 1778173149 | 14.44° C | 39% | 1015.1 hPa | 0 mm | - | - | - |
| 1778172694 | 14.44° C | 39% | 1015.2 hPa | 0 mm | - | - | - |
| 1778172550 | 14.44° C | 41% | 1015.3 hPa | 0 mm | - | - | - |
| 1778172095 | 14.44° C | 44% | 1015.5 hPa | 0 mm | - | - | - |
| 1778171949 | 14.44° C | 40% | 1015.5 hPa | 0 mm | - | - | - |
* Rain latest hour (hover to see other rain measurements)
** Current wind speed in m/s (hover to see current wind gust speed)